Location: Fort Worth, Tx
(32.7431°N, 97.3695°W)
Time: 04:42:03
(UTC-05:00)

Explorer 11/Cluster Stage 4 - Visible Passes

Search period start: 23 February 2024 00:00
Search period end: 04 March 2024 00:00
Orbit: 465 x 1224 km, 28.8° (Epoch: 22 February)

Date Brightness Start Highest point End Pass type
(mag) Time Alt. Az. Time Alt. Az. Time Alt. Az.
23 Feb 7.7 05:24:13 43° ESE 05:24:13 43° ESE 05:28:08 10° ESE visible
23 Feb 7.2 07:05:57 17° W 07:10:27 44° SSW 07:15:20 10° SE visible
24 Feb 8.2 05:08:36 34° ESE 05:08:36 34° ESE 05:11:48 10° ESE visible
24 Feb 7.3 06:50:19 23° WSW 06:53:55 43° SSW 06:59:01 10° SE visible
25 Feb 8.7 04:52:59 26° ESE 04:52:59 26° ESE 04:55:26 10° ESE visible
25 Feb 7.4 06:34:43 29° WSW 06:37:21 42° SSW 06:42:39 10° SE visible
26 Feb 9.1 04:37:23 19° ESE 04:37:23 19° ESE 04:39:00 10° ESE visible
26 Feb 7.5 06:19:08 36° SW 06:20:44 41° SSW 06:26:15 10° SE visible
27 Feb 9.5 04:21:50 14° ESE 04:21:50 14° ESE 04:22:32 10° ESE visible
27 Feb 7.6 06:03:35 40° SSW 06:04:04 40° SSW 06:09:47 10° SE visible
28 Feb 7.8 05:48:04 38° S 05:48:04 38° S 05:53:17 10° SE visible
28 Feb 8.8 07:31:48 10° WSW 07:34:54 14° SW 07:37:45 10° S visible
29 Feb 8.2 05:32:37 32° S 05:32:37 32° S 05:36:43 10° SE visible
29 Feb 8.8 07:15:16 10° WSW 07:18:12 13° SW 07:20:56 10° S visible
01 Mar 8.7 05:17:12 24° SSE 05:17:12 24° SSE 05:20:06 10° SE visible
01 Mar 8.9 06:58:57 10° WSW 07:01:28 12° SW 07:04:00 10° SSW visible
01 Mar 9.0 21:38:47 10° S 21:39:50 13° S 21:39:50 13° S visible
02 Mar 9.1 05:01:50 17° SSE 05:01:50 17° SSE 05:03:25 10° SE visible
02 Mar 9.0 06:43:36 11° SW 06:44:43 12° SW 06:46:55 10° SSW visible
02 Mar 8.7 21:22:01 10° SSW 21:24:34 17° SSE 21:24:34 17° SSE visible
03 Mar 9.5 04:46:30 11° SE 04:46:30 11° SE 04:46:40 10° SE visible
03 Mar 9.1 06:28:16 11° SW 06:28:16 11° SW 06:29:33 10° SSW visible
03 Mar 8.4 21:05:18 10° SSW 21:09:17 20° SSE 21:09:17 20° SSE visible
